Regional Weather Roundup
Issued by NWS

Home | Current Version | Previous Version | Graphics & Text | Print | Product List | Glossary On
Versions: 1 2 3 4 5 6 7 8 9 10 11 12 13 14 15 16 17 18 19 20 21 22 23 24 25 26 27 28 29 30 31 32 33 34 35 36 37 38 39 40 41 42 43 44 45 46 47 48 49 50
000
ASUS43 KDTX 220910
RWRMI
MICHIGAN HOURLY REGIONAL WEATHER ROUNDUP
NATIONAL WEATHER SERVICE DETROIT/PONTIAC MI
500 AM EDT THU JUN 22 2017

NOTE: "FAIR" INDICATES FEW OR NO CLOUDS BELOW 12,000 FEET WITH NO
SIGNIFICANT WEATHER AND/OR OBSTRUCTION TO VISIBILITY.

MIZ047>049-052>055-059>063-066>070-074>076-081>083-221000-
SOUTHEAST LOWER MICHIGAN

CITY           SKY/WX    TMP DP  RH WIND       PRES   REMARKS
ADRIAN         CLOUDY    62  54  74 CALM      29.95S
ALMA           MOCLDY    63  56  80 S7        29.88F
ANN ARBOR      PTCLDY    54  53  97 CALM      29.94F
BAD AXE        CLOUDY    60  54  79 S8        29.92S
CARO           PTCLDY    58  55  89 SE3       29.91R
DETROIT CITY   CLOUDY    63  57  81 S3        29.95S
DETROIT        CLOUDY    66  58  75 SE5       29.95S
FLINT          CLEAR     60  56  86 S7        29.92F
GROSSE ILE     MOCLDY    69  57  66 S8        29.94S
HILLSDALE      CLOUDY    63  52  67 SE6       29.94S
HOWELL         CLEAR     61  54  77 S8        29.93S

CITY           SKY/WX    TMP DP  RH WIND       PRES   REMARKS
JACKSON        MOCLDY    66  50  56 S12       29.93S
LAMBERTVILLE   PTCLDY    61  53  76 SE3       29.94S
LANSING        PTCLDY    65  52  62 S10       29.90F
LAPEER         NOT AVBL
MASON          PTCLDY    63  54  72 SE6       29.92S
MONROE         CLOUDY    67  53  61 S5        29.94S
MT. CLEMENS    CLEAR     61  59  94 S8        29.92F
PONTIAC        PTCLDY    63  58  83 S7        29.93F
PORT HOPE        N/A     63  54  72 VRB5      29.89F
PORT HURON     CLEAR     55  54  94 S3        29.94F
TRI CITIES     CLOUDY    63  57  81 S10       29.89S
MIDLAND        FAIR      63  53  70 S7        29.87F
TROY           MOCLDY    63  56  77 S3        29.96F
SAGINAW HB     CLOUDY    61  54  77 S7        29.89S
$$
MIZ043>046-050>051-056>058-064>065-071>073-077>080-221000-
SOUTHWEST LOWER MICHIGAN

CITY           SKY/WX    TMP DP  RH WIND       PRES   REMARKS
BATTLE CREEK   MOCLDY    67  54  63 S10       29.90F
BENTON HARBOR  CLOUDY    70  59  68 SE6       29.86S
BIG RAPIDS     CLOUDY    59  55  85 E3        29.83F
COLDWATER      CLOUDY    66  52  60 SE5       29.92F
FREMONT        CLOUDY    65  53  65 SE5       29.83F
HOLLAND        CLOUDY    66  56  70 S9        29.85F
GRAND RAPIDS   CLOUDY    64  57  78 S10       29.86F
IONIA          MOCLDY    64  54  68 S9        29.88S
KALAMAZOO      CLEAR     67  54  63 S6        29.90S
LUDINGTON      HVY RAIN  63  62  98 SW7G20    29.84F
MARSHALL       MOCLDY    66  53  61 SE6       29.91S
MOUNT PLEASANT CLOUDY    63  54  73 S7        29.86F
MUSKEGON       PTCLDY    69  56  62 S12       29.82F
SOUTH HAVEN    CLEAR     69  59  71 SE6       29.86S
$$
MIZ016>042-221000-
NORTHERN LOWER MICHIGAN

CITY           SKY/WX    TMP DP  RH WIND       PRES   REMARKS
ALPENA         MOCLDY    53  53 100 CALM      29.87S
BEAVER ISLAND  CLOUDY    60  53  78 SE5       29.81F
BELLAIRE       CLOUDY    54  52  93 CALM      29.82F
CADILLAC       HVY RAIN  60  56  87 S7        29.85F
CHARLEVOIX     MOCLDY    59  51  76 SE7       29.84F
FRANKFORT      CLOUDY    63  57  81 S9        29.80F
GAYLORD        CLOUDY    58  50  75 S6        29.86S
GRAYLING       CLOUDY    53  51  93 CALM      29.87F
HARBOR SPRINGS CLOUDY    57  51  82 NE6       29.83S
HOUGHTON LAKE  TSTM      60  55  83 SW5       29.91R
MANISTEE       RAIN      60  58  92 VRB3      29.84F
OSCODA         PTCLDY    58  57  96 SW5       29.88F
PELLSTON       MOCLDY    54  51  90 CALM      29.85S
ROGERS CITY    CLOUDY    58  56  90 S5        29.87S
TRAVERSE CITY  CLOUDY    62  53  72 VRB3      29.80F
$$
MIZ007>008-015-221000-
EASTERN UPPER MICHIGAN

CITY           SKY/WX    TMP DP  RH WIND       PRES   REMARKS
KINROSS        LGT RAIN  57  54  89 E7        29.85S
MACKINAC ISLAN CLOUDY    61  54  76 SE7       29.83S
NEWBERRY       CLOUDY    55  55  97 CALM      29.82S
S. S. MARIE    LGT RAIN  56  51  84 E3        29.84S
MUNISING         N/A     59  55  87 SE3       29.77S
$$
MIZ004>006-011>014-085-221000-
CENTRAL UPPER MICHIGAN

CITY           SKY/WX    TMP DP  RH WIND       PRES   REMARKS
MANISTIQUE     CLOUDY    57  55  90 SE7       29.79S
ESCANABA       CLOUDY    63  57  81 SE9       29.74F
MENOMINEE      CLOUDY    64  58  80 SW3       29.73F
SAWYER-GWINN   CLOUDY    59  53  78 S7        29.75F
$$
MIZ001>003-009>011-084-221000-
WESTERN UPPER MICHIGAN

CITY           SKY/WX    TMP DP  RH WIND       PRES   REMARKS
IRON MOUNTAIN  CLOUDY    62  51  67 SE3       29.72F
HOUGHTON       MOCLDY    54  51  90 CALM      29.68F
COPPER HARBOR    N/A     60  56  86 SW12G20   29.64F
IRONWOOD       PTCLDY    64  55  72 S5        29.68F
$$

ABBREVIATIONS USED IN REMARKS
   TC - TEMPERATURE IN CELSIUS
  WCI - WIND CHILL INDEX
   HX - HEAT INDEX
  VSB - VISIBILITY





USA.gov is the U.S. government's official web portal to all federal, state and local government web resources and services.